User: anonymous   Login
Location: Unspecified
(0.0000°N, 0.0000°E)
Time: 05:47:07
(UTC+00:00)
Language:

STARLINK-30461 - Orbit

View from above orbital plane
View from above orbital plane
View from above satellite
View from above satellite

Ground track
Ground track

The orbit is defined by the following mean orbital elements,

1 57933U          26145.00315688 +.00000000 +00000-0 +14327-4 0 00000
2 57933  43.0007 253.8474 0000975 278.2741  81.8000 15.27578487    09
Epoch (UTC): 25 May 2026 00:04:32
Eccentricity: 0.0000975
inclination: 43.0007°
perigee height: 482 km
apogee height: 484 km
right ascension of ascending node: 253.8474°
argument of perigee: 278.2741°
revolutions per day: 15.27578487
mean anomaly at epoch: 81.8000°

The dashed part of the orbit path shows where the satellite is in the earth's shadow,  

DLR